Regional Weather Roundup
Issued by NWS

Home | Current Version | Previous Version | Text Only | Print | Product List | Glossary Off
Versions: 1 2 3 4 5 6 7 8 9 10 11 12 13 14 15 16 17 18 19 20 21 22 23 24 25 26 27 28 29 30 31 32 33 34 35 36 37 38 39 40 41 42 43 44 45 46 47 48 49 50

605
ASUS43 KOAX 071810
RWRNE

WEATHER ROUNDUP FOR NEBRASKA
NATIONAL WEATHER SERVICE OMAHA NE
1200 PM CST SUN FEB 07 2016

NOTES: SATELLITE DATA IS BEING USED TO AUGMENT CLOUD COVER ABOVE
       12000 FEET.
       "FAIR" INDICATES FEW OR NO CLOUDS BELOW 12,000 FEET WITH NO
       SIGNIFICANT WEATHER AND/OR OBSTRUCTIONS TO VISIBILITY.

  * THESE STATIONS DO NOT REPORT WEATHER SUCH AS RAIN...SNOW OR FOG.

NEZ001>004-019>022-054>056-071900-
NEBRASKA PANHANDLE

CITY           SKY/WX    TMP DP  RH WIND       PRES   REMARKS
SCOTTSBLUFF    CLOUDY    34  17  50 NW24G43   30.32R WCI  21
6HR MIN TEMP:  30; 6HR MAX TEMP:  35; 6HR PCP: TRACE;

ALLIANCE       MOSUNNY   33  17  51 MISG      30.24R
6HR MIN TEMP:  30; 6HR MAX TEMP:  33;

CHADRON        SUNNY     37  15  40 NW29G45   30.25R WCI  25
6HR MIN TEMP:  32; 6HR MAX TEMP:  37;

KIMBALL        CLOUDY    30  22  73 NW23G30   30.31S WCI  17
SIDNEY         CLOUDY    31  24  75 NW23      30.30R WCI  18
6HR MIN TEMP:  24; 6HR MAX TEMP:  32; 6HR PCP: TRACE;

$$

NEZ057>060-069>072-079>082-071900-
SOUTHWEST NEBRASKA

CITY           SKY/WX    TMP DP  RH WIND       PRES   REMARKS
NORTH PLATTE   SUNNY     38  22  52 W24G31    30.19F WCI  27
6HR MIN TEMP:  30; 6HR MAX TEMP:  38;

IMPERIAL       PTSUNNY   35  25  66 NW21G29   30.28S WCI  24
6HR MIN TEMP:  31; 6HR MAX TEMP:  35;

LEXINGTON      MOSUNNY   40  24  54 W18       30.18F WCI  31
MCCOOK         CLOUDY    39  26  59 NW21G28   30.26R WCI  29
6HR MIN TEMP:  27; 6HR MAX TEMP:  39;

OGALLALA       MOSUNNY   35  25  66 W24       30.25F WCI  23
$$

NEZ005>010-023>029-035>040-094-071900-
NORTH CENTRAL NEBRASKA

CITY           SKY/WX    TMP DP  RH WIND       PRES   REMARKS
VALENTINE      CLOUDY    37  15  40 NW37G52   30.07S WCI  23
6HR MIN TEMP:  34; 6HR MAX TEMP:  39;

AINSWORTH      CLOUDY    38  13  35 NW32G56   30.05F WCI  26
BROKEN BOW     MOSUNNY   41  16  36 NW29G44   30.11F
6HR MIN TEMP:  36; 6HR MAX TEMP:  41;

O`NEILL        CLOUDY    39  19  43 NW44G53   30.01R WCI  26
ORD            MOSUNNY   42  15  33 NW40G54   30.06F
6HR MIN TEMP:  34; 6HR MAX TEMP:  42;

THEDFORD       MOSUNNY   41  15  34 NW32G44   30.12F
$$

NEZ041-046>049-061>064-073>077-083>087-071900-
SOUTH CENTRAL NEBRASKA

CITY           SKY/WX    TMP DP  RH WIND       PRES   REMARKS
GRAND ISLAND   SUNNY     41  23  48 W22       30.10F
6HR MIN TEMP:  30; 6HR MAX TEMP:  41;

AURORA         SUNNY     40  25  55 W20G25    30.09F WCI  31
HASTINGS       MOSUNNY   41  24  51 NW20      30.13S
6HR MIN TEMP:  31; 6HR MAX TEMP:  41;

HEBRON         PTSUNNY   41  27  56 NW15      30.13S
HOLDREGE       PTSUNNY   39  24  53 NW15      30.17F WCI  31
YORK           SUNNY     39  28  65 W21       30.08F WCI  29
$$

NEZ011>018-030>034-042>045-071900-
NORTHEAST NEBRASKA

CITY           SKY/WX    TMP DP  RH WIND       PRES   REMARKS
NORFOLK        PTSUNNY   42  22  44 W30G47    29.96F
6HR MIN TEMP:  34; 6HR MAX TEMP:  42;

ALBION         MOSUNNY   42  19  40 NW26G38   30.02F
BLAIR          CLOUDY    40  29  64 W13G18    29.99F WCI  33
COLUMBUS *     SUNNY     43  21  42 W20G30    30.03F
FREMONT        MOSUNNY   40  26  57 W20       30.00F WCI  31
TEKAMAH        MOSUNNY   41  27  57 W17       29.97F
6HR MIN TEMP:  36; 6HR MAX TEMP:  41;

WAYNE          PTSUNNY   41  24  51 NW23G33   29.96F
$$

NEZ050>053-065>068-078-088>093-071900-
SOUTHEAST NEBRASKA

CITY           SKY/WX    TMP DP  RH WIND       PRES   REMARKS
LINCOLN        SUNNY     43  26  51 NW18      30.07F
6HR MIN TEMP:  34; 6HR MAX TEMP:  43;

OMAHA EPPLEY   CLOUDY    42  27  55 W18G24    30.00S
6HR MIN TEMP:  38; 6HR MAX TEMP:  42;

BEATRICE       MOSUNNY   42  28  59 NW20      30.09F
FALLS CITY     MOSUNNY   49  28  44 W22G32    30.05F
6HR MIN TEMP:  35; 6HR MAX TEMP:  49;

NEBRASKA CITY  MOSUNNY   43  28  56 NW24G30   30.04S
PLATTSMOUTH    PTSUNNY   41  28  60 W18G29    30.02S
$$

NEZ044-045-051>053-067-071900-
OMAHA AREA

CITY           SKY/WX    TMP DP  RH WIND       PRES   REMARKS
OMAHA EPPLEY   CLOUDY    42  27  55 W18G24    30.00S
6HR MIN TEMP:  38; 6HR MAX TEMP:  42;

BLAIR          CLOUDY    40  29  64 W13G18    29.99F WCI  33
FREMONT        MOSUNNY   40  26  57 W20       30.00F WCI  31
MILLARD        PTSUNNY   43  28  55 W15       30.01F
OFFUTT AFB     CLOUDY    43  28  56 W17G24    30.00S
PLATTSMOUTH    PTSUNNY   41  28  60 W18G29    30.02S
WAHOO          FAIR      41  27  56 W18       30.02F
$$




USA.gov is the U.S. government's official web portal to all federal, state and local government web resources and services.